Time,TemperatureF,DewpointF,PressureIn,WindDirection,WindDirectionDegrees,WindSpeedMPH,WindSpeedGustMPH,Humidity,HourlyPrecipIn,Conditions,Clouds,dailyrainin,SoftwareType,DateUTC
2013-07-20 00:02:00,88.0,77.0,29.80,North,354,1.0,4.0,69,0.00,,,0.00,,2013-07-20 04:02:00,
2013-07-20 00:22:00,87.0,77.0,29.80,WNW,301,0.0,2.0,72,0.00,,,0.00,,2013-07-20 04:22:00,
2013-07-20 00:44:00,86.0,76.0,29.80,WNW,285,0.0,6.0,73,0.00,,,0.00,,2013-07-20 04:44:00,
2013-07-20 00:52:00,86.0,76.0,29.80,WNW,285,0.0,6.0,73,0.00,,,0.00,,2013-07-20 04:52:00,
2013-07-20 01:02:00,86.0,77.0,29.81,NNW,327,0.0,1.0,75,0.00,,,0.00,,2013-07-20 05:02:00,
2013-07-20 01:12:00,86.0,77.0,29.81,NNW,327,0.0,1.0,75,0.00,,,0.00,,2013-07-20 05:12:00,
2013-07-20 01:52:00,85.0,77.0,29.82,NNW,328,1.0,4.0,77,0.00,,,0.00,,2013-07-20 05:52:00,
2013-07-20 02:01:00,85.0,77.0,29.82,NNW,328,1.0,4.0,77,0.00,,,0.00,,2013-07-20 06:01:00,
2013-07-20 02:43:00,84.0,74.0,29.81,NNW,334,1.0,3.0,73,0.00,,,0.00,,2013-07-20 06:43:00,
2013-07-20 02:52:00,84.0,74.0,29.81,NNW,334,1.0,3.0,73,0.00,,,0.00,,2013-07-20 06:52:00,
2013-07-20 03:01:00,84.0,74.0,29.81,NNW,334,1.0,3.0,73,0.00,,,0.00,,2013-07-20 07:01:00,
2013-07-20 03:22:00,83.0,73.0,29.79,North,352,0.0,8.0,73,0.00,,,0.00,,2013-07-20 07:22:00,
2013-07-20 03:33:00,83.0,73.0,29.79,North,352,0.0,8.0,73,0.00,,,0.00,,2013-07-20 07:33:00,
2013-07-20 03:44:00,83.0,73.0,29.79,North,352,0.0,8.0,73,0.00,,,0.00,,2013-07-20 07:44:00,
2013-07-20 03:53:00,82.0,73.0,29.78,NW,311,0.0,1.0,74,0.00,,,0.00,,2013-07-20 07:53:00,
2013-07-20 04:22:00,81.0,73.0,29.78,North,0,0.0,0.0,77,0.00,,,0.00,,2013-07-20 08:22:00,
2013-07-20 04:44:00,79.0,72.0,29.76,NNE,20,0.0,1.0,80,0.00,,,0.00,,2013-07-20 08:44:00,
2013-07-20 04:52:00,79.0,72.0,29.76,NNE,20,0.0,1.0,80,0.00,,,0.00,,2013-07-20 08:52:00,
2013-07-20 05:02:00,79.0,72.0,29.76,NNE,20,0.0,1.0,80,0.00,,,0.00,,2013-07-20 09:02:00,
2013-07-20 05:11:00,79.0,72.0,29.76,NNE,20,0.0,1.0,80,0.00,,,0.00,,2013-07-20 09:11:00,
2013-07-20 05:22:00,80.0,73.0,29.77,NW,323,0.0,2.0,79,0.00,,,0.00,,2013-07-20 09:22:00,
2013-07-20 05:43:00,80.0,73.0,29.77,North,0,0.0,0.0,80,0.00,,,0.00,,2013-07-20 09:43:00,
2013-07-20 05:53:00,80.0,73.0,29.77,North,0,0.0,0.0,80,0.00,,,0.00,,2013-07-20 09:53:00,
2013-07-20 06:01:00,79.0,73.0,29.78,NNE,12,0.0,1.0,81,0.00,,,0.00,,2013-07-20 10:01:00,
2013-07-20 06:11:00,79.0,73.0,29.78,NNE,12,0.0,1.0,81,0.00,,,0.00,,2013-07-20 10:11:00,
2013-07-20 06:32:00,80.0,73.0,29.79,NNW,334,1.0,5.0,79,0.00,,,0.00,,2013-07-20 10:32:00,
2013-07-20 06:42:00,80.0,72.0,29.79,NNW,333,0.0,6.0,78,0.00,,,0.00,,2013-07-20 10:42:00,
2013-07-20 06:52:00,80.0,72.0,29.79,NNW,333,0.0,6.0,78,0.00,,,0.00,,2013-07-20 10:52:00,
2013-07-20 07:02:00,80.0,72.0,29.79,East,89,1.0,5.0,78,0.00,,,0.00,,2013-07-20 11:02:00,
2013-07-20 07:11:00,80.0,72.0,29.79,East,89,1.0,5.0,78,0.00,,,0.00,,2013-07-20 11:11:00,
2013-07-20 07:22:00,80.0,72.0,29.79,East,89,1.0,5.0,78,0.00,,,0.00,,2013-07-20 11:22:00,
2013-07-20 07:43:00,80.0,72.0,29.80,NNW,343,0.0,4.0,78,0.00,,,0.00,,2013-07-20 11:43:00,
2013-07-20 07:52:00,80.0,72.0,29.80,NNW,346,1.0,5.0,78,0.00,,,0.00,,2013-07-20 11:52:00,
2013-07-20 08:01:00,80.0,72.0,29.80,NNW,346,1.0,5.0,78,0.00,,,0.00,,2013-07-20 12:01:00,
2013-07-20 08:22:00,80.0,72.0,29.81,NW,321,1.0,3.0,78,0.00,,,0.00,,2013-07-20 12:22:00,
2013-07-20 08:32:00,80.0,72.0,29.81,NW,321,1.0,3.0,78,0.00,,,0.00,,2013-07-20 12:32:00,
2013-07-20 08:52:00,81.0,73.0,29.81,West,272,0.0,2.0,78,0.00,,,0.00,,2013-07-20 12:52:00,
2013-07-20 09:02:00,81.0,73.0,29.80,WNW,300,0.0,5.0,76,0.00,,,0.00,,2013-07-20 13:02:00,
2013-07-20 09:11:00,82.0,74.0,29.80,WNW,288,1.0,5.0,77,0.00,,,0.00,,2013-07-20 13:11:00,
2013-07-20 09:22:00,82.0,74.0,29.79,SSW,207,0.0,3.0,76,0.00,,,0.00,,2013-07-20 13:22:00,
2013-07-20 09:53:00,84.0,74.0,29.80,NW,321,2.0,6.0,72,0.00,,,0.00,,2013-07-20 13:53:00,
2013-07-20 10:02:00,84.0,74.0,29.79,WNW,303,2.0,6.0,72,0.00,,,0.00,,2013-07-20 14:02:00,
2013-07-20 10:11:00,84.0,74.0,29.79,WNW,303,2.0,6.0,72,0.00,,,0.00,,2013-07-20 14:11:00,
2013-07-20 10:20:00,88.0,74.0,29.79,NNW,340,2.0,8.0,64,0.00,,,0.00,,2013-07-20 14:20:00,
2013-07-20 10:22:00,87.0,75.0,29.79,South,189,2.0,9.0,67,0.00,,,0.00,,2013-07-20 14:22:00,
2013-07-20 10:43:00,88.0,74.0,29.79,NNW,340,2.0,8.0,64,0.00,,,0.00,,2013-07-20 14:43:00,
2013-07-20 10:53:00,88.0,74.0,29.79,NNW,340,2.0,8.0,64,0.00,,,0.00,,2013-07-20 14:53:00,
2013-07-20 11:01:00,88.0,74.0,29.79,NNW,340,2.0,8.0,64,0.00,,,0.00,,2013-07-20 15:01:00,
2013-07-20 11:11:00,88.0,74.0,29.79,NNW,340,2.0,8.0,64,0.00,,,0.00,,2013-07-20 15:11:00,
2013-07-20 11:33:00,90.0,74.0,29.77,NW,304,3.0,8.0,59,0.00,,,0.00,,2013-07-20 15:33:00,
2013-07-20 11:44:00,90.0,73.0,29.77,SSW,213,2.0,8.0,58,0.00,,,0.00,,2013-07-20 15:44:00,
2013-07-20 11:53:00,90.0,73.0,29.77,SSW,213,2.0,8.0,58,0.00,,,0.00,,2013-07-20 15:53:00,
2013-07-20 12:01:00,90.0,73.0,29.77,SSW,213,2.0,8.0,58,0.00,,,0.00,,2013-07-20 16:01:00,
2013-07-20 12:11:00,90.0,73.0,29.77,SSW,213,2.0,8.0,58,0.00,,,0.00,,2013-07-20 16:11:00,
2013-07-20 12:22:00,92.0,72.0,29.75,SW,228,2.0,8.0,52,0.00,,,0.00,,2013-07-20 16:22:00,
2013-07-20 12:32:00,92.0,72.0,29.75,SW,228,2.0,8.0,52,0.00,,,0.00,,2013-07-20 16:32:00,
2013-07-20 12:44:00,92.0,72.0,29.75,SW,228,2.0,8.0,52,0.00,,,0.00,,2013-07-20 16:44:00,
2013-07-20 12:52:00,92.0,72.0,29.75,SW,228,2.0,8.0,52,0.00,,,0.00,,2013-07-20 16:52:00,
2013-07-20 13:02:00,92.0,72.0,29.75,SW,228,2.0,8.0,52,0.00,,,0.00,,2013-07-20 17:02:00,
2013-07-20 13:22:00,94.0,75.0,29.74,SSW,194,3.0,7.0,54,0.00,,,0.00,,2013-07-20 17:22:00,
2013-07-20 13:32:00,94.0,75.0,29.74,SSW,194,3.0,7.0,54,0.00,,,0.00,,2013-07-20 17:32:00,
2013-07-20 13:43:00,93.0,74.0,29.74,NNW,346,3.0,9.0,54,0.00,,,0.00,,2013-07-20 17:43:00,
2013-07-20 13:53:00,93.0,74.0,29.74,NNW,346,3.0,9.0,54,0.00,,,0.00,,2013-07-20 17:53:00,
2013-07-20 14:01:00,93.0,74.0,29.74,NNW,346,3.0,9.0,54,0.00,,,0.00,,2013-07-20 18:01:00,
2013-07-20 14:12:00,93.0,74.0,29.74,NNW,346,3.0,9.0,54,0.00,,,0.00,,2013-07-20 18:12:00,
2013-07-20 14:36:00,92.0,74.0,29.74,NW,326,4.0,15.0,56,0.00,,,0.00,,2013-07-20 18:36:00,
2013-07-20 14:47:00,92.0,74.0,29.74,NW,326,4.0,15.0,56,0.00,,,0.00,,2013-07-20 18:47:00,
2013-07-20 14:59:00,92.0,74.0,29.74,NW,326,4.0,15.0,56,0.00,,,0.00,,2013-07-20 18:59:00,
2013-07-20 15:06:00,93.0,75.0,29.73,SSW,197,3.0,7.0,56,0.00,,,0.00,,2013-07-20 19:06:00,
2013-07-20 15:16:00,93.0,75.0,29.73,SSW,197,3.0,7.0,56,0.00,,,0.00,,2013-07-20 19:16:00,
2013-07-20 15:35:00,93.0,72.0,29.73,NW,321,3.0,8.0,51,0.00,,,0.00,,2013-07-20 19:35:00,
2013-07-20 15:44:00,93.0,72.0,29.73,NW,321,3.0,8.0,51,0.00,,,0.00,,2013-07-20 19:44:00,
2013-07-20 15:54:00,94.0,72.0,29.72,SSW,213,4.0,7.0,50,0.00,,,0.00,,2013-07-20 19:54:00,
2013-07-20 16:06:00,94.0,72.0,29.72,SSW,213,4.0,7.0,50,0.00,,,0.00,,2013-07-20 20:06:00,
2013-07-20 16:15:00,94.0,72.0,29.72,SSW,213,4.0,7.0,50,0.00,,,0.00,,2013-07-20 20:15:00,
2013-07-20 16:24:00,94.0,72.0,29.72,NW,305,4.0,11.0,50,0.00,,,0.00,,2013-07-20 20:24:00,
2013-07-20 16:34:00,94.0,72.0,29.72,NW,305,4.0,11.0,50,0.00,,,0.00,,2013-07-20 20:34:00,
2013-07-20 16:47:00,92.0,71.0,29.72,NW,320,3.0,14.0,51,0.00,,,0.00,,2013-07-20 20:47:00,
2013-07-20 16:58:00,92.0,71.0,29.72,NW,320,3.0,14.0,51,0.00,,,0.00,,2013-07-20 20:58:00,
2013-07-20 17:07:00,92.0,71.0,29.72,NW,320,3.0,14.0,51,0.00,,,0.00,,2013-07-20 21:07:00,
2013-07-20 17:15:00,92.0,71.0,29.72,NW,320,3.0,14.0,51,0.00,,,0.00,,2013-07-20 21:15:00,
2013-07-20 17:28:00,94.0,72.0,29.72,NNW,344,2.0,6.0,50,0.00,,,0.00,,2013-07-20 21:28:00,
2013-07-20 17:57:00,91.0,71.0,29.72,NW,324,3.0,7.0,52,0.00,,,0.00,,2013-07-20 21:57:00,
2013-07-20 18:07:00,89.0,72.0,29.74,NNW,337,4.0,12.0,57,0.00,,,0.00,,2013-07-20 22:07:00,
2013-07-20 18:26:00,89.0,72.0,29.74,NNW,337,4.0,12.0,57,0.00,,,0.00,,2013-07-20 22:26:00,
2013-07-20 18:57:00,88.0,70.0,29.74,NW,325,2.0,6.0,56,0.00,,,0.00,,2013-07-20 22:57:00,
2013-07-20 19:06:00,87.0,71.0,29.75,NW,320,1.0,4.0,59,0.00,,,0.00,,2013-07-20 23:06:00,
2013-07-20 19:17:00,87.0,71.0,29.75,NW,320,1.0,4.0,59,0.00,,,0.00,,2013-07-20 23:17:00,
2013-07-20 19:38:00,87.0,71.0,29.75,NW,320,1.0,4.0,59,0.00,,,0.00,,2013-07-20 23:38:00,
2013-07-20 19:45:00,86.0,71.0,29.75,NNW,344,1.0,4.0,61,0.00,,,0.00,,2013-07-20 23:45:00,
2013-07-20 20:09:00,86.0,71.0,29.75,NNW,344,1.0,4.0,61,0.00,,,0.00,,2013-07-21 00:09:00,
2013-07-20 20:18:00,86.0,71.0,29.75,NNW,344,1.0,4.0,61,0.00,,,0.00,,2013-07-21 00:18:00,
2013-07-20 20:24:00,84.0,71.0,29.78,WNW,282,0.0,1.0,66,0.00,,,0.00,,2013-07-21 00:24:00,
2013-07-20 20:45:00,83.0,71.0,29.79,WNW,290,0.0,1.0,67,0.00,,,0.00,,2013-07-21 00:45:00,
2013-07-20 20:56:00,83.0,71.0,29.79,WNW,290,0.0,1.0,67,0.00,,,0.00,,2013-07-21 00:56:00,
2013-07-20 21:13:00,82.0,71.0,29.79,North,0,0.0,0.0,69,0.00,,,0.00,,2013-07-21 01:13:00,
2013-07-20 21:15:00,81.0,72.0,29.80,North,0,0.0,0.0,75,0.00,,,0.00,,2013-07-21 01:15:00,
2013-07-20 21:36:00,81.0,72.0,29.80,North,0,0.0,0.0,75,0.00,,,0.00,,2013-07-21 01:36:00,
2013-07-20 21:47:00,-999.0,-99.9,29.80,North,0,0.0,0.0,-999,-99.99,,,-99.99,,2013-07-21 01:47:00,
2013-07-20 21:59:00,81.0,72.0,29.80,North,0,0.0,0.0,75,0.00,,,0.00,,2013-07-21 01:59:00,
2013-07-20 22:06:00,81.0,72.0,29.80,North,0,0.0,0.0,75,0.00,,,0.00,,2013-07-21 02:06:00,
2013-07-20 22:58:00,79.0,72.0,29.82,North,0,0.0,0.0,78,0.00,,,0.00,,2013-07-21 02:58:00,
2013-07-20 23:05:00,79.0,72.0,29.82,North,0,0.0,0.0,80,0.00,,,0.00,,2013-07-21 03:05:00,
2013-07-20 23:15:00,78.0,72.0,29.83,WNW,289,0.0,1.0,81,0.00,,,0.00,,2013-07-21 03:15:00,
2013-07-20 23:26:00,78.0,72.0,29.83,WNW,289,0.0,1.0,81,0.00,,,0.00,,2013-07-21 03:26:00,
2013-07-20 23:36:00,78.0,72.0,29.83,WNW,289,0.0,1.0,81,0.00,,,0.00,,2013-07-21 03:36:00,
2013-07-20 23:45:00,78.0,72.0,29.83,WNW,289,0.0,1.0,81,0.00,,,0.00,,2013-07-21 03:45:00,
2013-07-20 23:56:00,78.0,72.0,29.85,North,0,0.0,0.0,82,0.00,,,0.00,,2013-07-21 03:56:00,